Location: Munkebjergskolens Observatorium
(55.3864°N, 10.3987°E)
Time: 00:13:14
(UTC+01:00)

BlueWalker 3 - Visible Passes

Search period start: 18 January 2026 00:00
Search period end: 28 January 2026 00:00
Orbit: 451 x 463 km, 53.2° (Epoch: 17 January)

Date Brightness Start Highest point End Pass type
(mag) Time Alt. Az. Time Alt. Az. Time Alt. Az.
22 Jan 4.1 19:24:58 10° SSW 19:26:04 17° SSW 19:26:04 17° SSW visible
23 Jan 3.4 18:49:50 10° SSW 18:52:18 22° SSE 18:52:18 22° SSE visible
24 Jan 3.5 18:14:45 10° SSW 18:17:21 19° SE 18:18:27 17° ESE visible
24 Jan 4.1 19:50:51 10° WSW 19:52:12 21° SW 19:52:12 21° SW visible
25 Jan 3.8 17:39:44 10° S 17:42:03 16° SE 17:44:22 10° ESE visible
25 Jan 2.7 19:15:31 10° SW 19:18:17 39° SSW 19:18:17 39° SSW visible
26 Jan 2.5 18:40:11 10° SW 18:43:32 40° SSE 18:44:20 34° SE visible
26 Jan 4.6 20:17:15 10° W 20:18:04 16° WSW 20:18:04 16° WSW visible
27 Jan 2.7 18:04:51 10° SW 18:08:09 35° SSE 18:10:20 18° E visible
27 Jan 3.2 19:41:49 10° WSW 19:44:04 35° WSW 19:44:04 35° WSW visible
